Track ONEWEB-0060 now! 10-day predictions ONEWEB-0060 is classified as:
1 45455U 20020AH 22219.77876844 -.00000186 00000-0 -56025-3 0 9992 2 45455 87.8860 301.2377 0002000 102.7507 257.3845 13.11412802117836